Фрайбург

Германия     47˚59′22″N   7˚49′46″E
темп.,
°C
ветер,
м/с
пор.,
м/с
влажн.,
%
обл.,
%
осадки,
мм/ч
давл.,
гПа
погр.,
м
5 декабря, сб
сб501:00+3˚ююз3797100 2.1 994307
04:00+2˚ю4796100 1.8 996339
07:00+3˚ююв3594100 1.9 999216
10:00+4˚юв1182100 0.0 100058
13:00+6˚ссз2276100 0.0 1000275
16:00+4˚ссз1191100 0.0 99925
19:00+3˚сз0189100 0.0 100022
22:00+3˚ююз1288100 0.0 100023
6 декабря, вс
вс601:00+3˚ююв1186100 0.0 100026
04:00+2˚юз1192100 0.0 100022
07:00+2˚юв1189100 0.0 100122
10:00+4˚сз1183100 0.0 100166
13:00+5˚ссв1283100 0.0 1001181
16:00+4˚с1189100 0.0 99922
19:00+3˚сз1194100 0.4 99938
22:00+3˚ююз2398100 2.0 999162
7 декабря, пн
пн701:00+2˚ю2397100 5.3 999162
04:00+2˚ю2497100 0.9 999210
07:00+3˚ююз3696100 1.3 1000360
10:00+3˚ююз5894100 0.2 1002519
13:00+4˚ююз477699 0.2 1002806
16:00+3˚ююв228185 0.1 100341
19:00+1˚вюв228082 0.1 100431
22:00юв128342 0.0 100525
8 декабря, вт
вт801:00юв118434 0.0 100522
04:00−1˚юв118213 0.0 100524
07:00св118342 0.0 100522
10:00+1˚ссз117985 0.0 1006130
13:00+3˚сз217686 0.0 1005326
16:00+1˚с228794 0.0 100652
19:00вюв119197 0.0 100736
22:00юз0191100 0.0 100822
9 декабря, ср
ср901:00з1195100 0.0 100922
04:00юв0095100 0.0 101066
07:00з1197100 0.0 101188
10:00+1˚юз1297100 0.1 1012111
13:00+2˚ююз2388100 0.4 1012270
16:00+2˚ю2486100 0.1 1012230
19:00+1˚ю2490100 0.1 1014117
22:00+1˚ююв239399 0.1 1015117